Yakutat, AK

11:34 AM AKST on December 10, 2016 (GMT -0900)
Yakutat

Weather History for PAYA - January, 2014

Change the Weather History Date:

Thursday, January 2, 2014

  Actual Average Record
Temperature  
Mean Temperature 31 °F 29 °F  
Max Temperature 36 °F 34 °F 46 °F (2001)
Min Temperature 26 °F 23 °F -17 °F (1965)
Degree Days  
Heating Degree Days 34 37  
Month to date heating degree days 61 73  
Since 1 July heating degree days 3831 4067  
Cooling Degree Days 0    
Month to date cooling degree days 0  
Year to date cooling degree days 0  
Moisture  
Dew Point 32 °F    
Average Humidity 97    
Maximum Humidity 100    
Minimum Humidity 93    
Precipitation  
Precipitation 0.16 in 0.48 in 2.05 in (1985)
Month to date precipitation 2.00 0.96  
Year to date precipitation 2.00 0.96  
Snow  
Snow 0.20 in 0.90 in 17.00 in (1975)
Month to date snowfall 0.5 1.8  
Since 1 July snowfall 46.4 45.7  
Snow Depth 6.00 in    
Sea Level Pressure  
Sea Level Pressure 29.81 in    
Wind  
Wind Speed 1 mph (ENE)    
Max Wind Speed 8 mph    
Max Gust Speed 10 mph    
Visibility 6 miles    
Events Fog , Rain , Snow    
T = Trace of Precipitation, MM = Missing Value Source: NWS Daily Summary

Daily Weather History Graph

Daily Weather History Graph

Search for Another Location

Airport or City:

Trip Planner

Search our weather history database for the weather conditions in past years. The results will help you decide how hot, cold, wet, or windy it might be!

Date:

Astronomy

Jan. 02, 2014 Rise Set
Actual Time 9:15 AM AKST 3:30 PM AKST
Civil Twilight 8:20 AM AKST 4:25 PM AKST
Nautical Twilight 7:25 AM AKST 5:20 PM AKST
Astronomical Twilight 6:35 AM AKST 6:10 PM AKST
Moon 9:27 AM AKST (1/2) 6:17 PM AKST (1/2)
Length of Visible Light 8h 04m
Length of Day
6h 14m
Waxing Crescent, 3% of the Moon is Illuminated
Jan 2
Waxing Crescent
Jan 7
First Quarter
Jan 15
Full
Jan 23
Last Quarter
Jan 30
New

Hourly Weather History & Observations

Time (AKST) Temp. Windchill Dew Point Humidity Pressure Visibility Wind Dir Wind Speed Gust Speed Precip Events Conditions
12:08 AM 33.8 °F 29.6 °F 33.8 °F 100% 29.79 in 6.0 mi WNW 4.6 mph - 0.01 in Snow Light Snow
12:24 AM 33.8 °F - 32.0 °F 93% 29.79 in 2.5 mi Calm Calm - 0.06 in Rain , Snow Light Rain
12:46 AM 33.8 °F 30.8 °F 32.0 °F 93% 29.79 in 1.2 mi East 3.5 mph - 0.10 in Rain , Snow Light Rain
12:53 AM 33.1 °F 30.0 °F 32.0 °F 96% 29.79 in 1.8 mi East 3.5 mph - 0.10 in Rain , Snow Light Rain
12:55 AM 33.8 °F 30.8 °F 32.0 °F 93% 29.78 in 2.0 mi East 3.5 mph - 0.00 in Rain , Snow Light Rain
1:03 AM 33.8 °F - 32.0 °F 93% 29.78 in 4.0 mi Calm Calm - 0.01 in Rain , Snow Light Rain
1:53 AM 33.1 °F 27.7 °F 32.0 °F 96% 29.77 in 6.0 mi East 5.8 mph - 0.03 in Snow Light Snow
2:17 AM 33.8 °F 27.7 °F 32.0 °F 93% 29.76 in 2.5 mi Variable 6.9 mph - 0.01 in Snow Light Snow
2:20 AM 33.8 °F 27.7 °F 32.0 °F 93% 29.76 in 1.8 mi ENE 6.9 mph - 0.01 in Snow Light Snow
2:30 AM 33.8 °F 27.7 °F 32.0 °F 93% 29.75 in 1.2 mi East 6.9 mph - 0.02 in Snow Light Snow
2:37 AM 33.8 °F 27.7 °F 32.0 °F 93% 29.75 in 2.0 mi East 6.9 mph - 0.03 in Snow Light Snow
2:46 AM 33.8 °F 29.6 °F 33.8 °F 100% 29.75 in 6.0 mi East 4.6 mph - 0.03 in Snow Light Snow
3:09 AM 33.8 °F 28.6 °F 33.8 °F 100% 29.74 in 9.0 mi East 5.8 mph - 0.00 in Snow Light Snow
3:24 AM 33.8 °F 29.6 °F 33.8 °F 100% 29.73 in 7.0 mi East 4.6 mph - 0.00 in Snow Light Snow
3:39 AM 33.8 °F 29.6 °F 33.8 °F 100% 29.72 in 8.0 mi ENE 4.6 mph - 0.00 in Snow Light Snow
3:53 AM 33.1 °F 26.9 °F 33.1 °F 100% 29.72 in 9.0 mi ENE 6.9 mph - 0.00 in Snow Light Snow
4:53 AM 34.0 °F 28.8 °F 33.1 °F 96% 29.70 in 8.0 mi ENE 5.8 mph - 0.00 in Snow Light Snow
5:53 AM 35.1 °F - 34.0 °F 96% 29.68 in 9.0 mi Calm Calm - 0.01 in   Overcast
6:53 AM 34.0 °F 31.0 °F 34.0 °F 100% 29.68 in 8.0 mi ENE 3.5 mph - N/A   Overcast
7:53 AM 34.0 °F - 33.1 °F 96% 29.68 in 10.0 mi Calm Calm - 0.00 in Rain , Snow Light Rain
8:53 AM 34.0 °F - 33.1 °F 96% 29.69 in 10.0 mi Calm Calm - 0.00 in Rain , Snow Light Rain
9:53 AM 34.0 °F - 34.0 °F 100% 29.71 in 10.0 mi Calm Calm - 0.00 in   Overcast
10:42 AM 33.8 °F - 33.8 °F 100% 29.72 in 10.0 mi Calm Calm - N/A   Overcast
10:53 AM 35.1 °F - 34.0 °F 96% 29.72 in 10.0 mi Calm Calm - N/A   Overcast
11:09 AM 33.8 °F - 33.8 °F 100% 29.72 in 10.0 mi Calm Calm - N/A   Overcast
11:53 AM 34.0 °F - 34.0 °F 100% 29.74 in 10.0 mi Calm Calm - N/A   Overcast
12:03 PM 33.8 °F - 33.8 °F 100% 29.74 in 10.0 mi Calm Calm - N/A   Overcast
12:53 PM 35.1 °F - 34.0 °F 96% 29.75 in 2.5 mi Calm Calm - N/A   Overcast
1:00 PM 35.6 °F - 33.8 °F 93% 29.75 in 7.0 mi Calm Calm - N/A   Overcast
1:19 PM 35.6 °F - 33.8 °F 93% 29.75 in 1.8 mi Calm Calm - N/A   Mostly Cloudy
1:24 PM 35.6 °F - 33.8 °F 93% 29.76 in 0.8 mi Calm Calm - N/A   Mostly Cloudy
1:37 PM 35.6 °F - 33.8 °F 93% 29.76 in 1.5 mi Calm Calm - N/A   Mostly Cloudy
1:39 PM 35.6 °F - 33.8 °F 93% 29.76 in 4.0 mi Calm Calm - N/A   Mostly Cloudy
1:53 PM 35.1 °F - 35.1 °F 100% 29.77 in 4.0 mi Calm Calm - N/A   Overcast
2:28 PM 35.6 °F - 33.8 °F 93% 29.78 in 1.5 mi Calm Calm - N/A   Partly Cloudy
2:30 PM 33.8 °F - 33.8 °F 100% 29.78 in 0.8 mi Calm Calm - N/A   Partly Cloudy
2:37 PM 33.8 °F - 33.8 °F 100% 29.78 in 5.0 mi Calm Calm - N/A   Scattered Clouds
2:50 PM 33.8 °F - 33.8 °F 100% 29.79 in 5.0 mi Calm Calm - N/A   Mostly Cloudy
2:53 PM 34.0 °F - 33.1 °F 96% 29.80 in 5.0 mi Calm Calm - N/A   Mostly Cloudy
3:00 PM 33.8 °F - 32.0 °F 93% 29.80 in 0.5 mi Calm Calm - N/A Fog Fog
3:10 PM 32.0 °F - 32.0 °F 100% 29.80 in 5.0 mi Calm Calm - N/A   Mostly Cloudy
3:53 PM 30.9 °F - 30.0 °F 96% 29.82 in 5.0 mi Calm Calm - N/A   Overcast
4:21 PM 30.2 °F - 30.2 °F 100% 29.83 in 1.8 mi Calm Calm - N/A   Overcast
4:29 PM 30.2 °F - 30.2 °F 100% 29.84 in 2.5 mi Calm Calm - N/A   Overcast
4:35 PM 30.2 °F - 30.2 °F 100% 29.84 in 1.2 mi Calm Calm - N/A   Overcast
4:41 PM 30.2 °F - 30.2 °F 100% 29.84 in 0.8 mi Calm Calm - N/A   Overcast
4:53 PM 30.0 °F - 30.0 °F 100% 29.85 in 0.8 mi Calm Calm - N/A   Overcast
5:21 PM 30.2 °F - 30.2 °F 100% 29.86 in 1.5 mi Calm Calm - N/A   Mostly Cloudy
5:23 PM 30.2 °F - 30.2 °F 100% 29.86 in 3.0 mi Calm Calm - N/A   Mostly Cloudy
5:31 PM 30.2 °F - 28.4 °F 93% 29.87 in 6.0 mi Calm Calm - N/A   Scattered Clouds
5:53 PM 30.0 °F - 28.9 °F 96% 29.88 in 4.0 mi Calm Calm - N/A   Clear
5:58 PM 30.2 °F - 28.4 °F 93% 29.88 in 1.8 mi Calm Calm - N/A   Partly Cloudy
6:04 PM 30.2 °F - 28.4 °F 93% 29.88 in 3.0 mi Calm Calm - N/A   Scattered Clouds
6:23 PM 30.2 °F - 30.2 °F 100% 29.89 in 10.0 mi Calm Calm - N/A   Mostly Cloudy
6:53 PM 30.9 °F - 30.0 °F 96% 29.91 in 10.0 mi Calm Calm - N/A   Overcast
7:53 PM 30.9 °F - 30.9 °F 100% 29.94 in 10.0 mi Calm Calm - N/A   Overcast
8:16 PM 30.2 °F - 30.2 °F 100% 29.95 in 4.0 mi Calm Calm - N/A   Scattered Clouds
8:53 PM 28.9 °F - 28.9 °F 100% 29.98 in 9.0 mi Calm Calm - N/A   Clear
9:53 PM 28.9 °F - 28.0 °F 96% 30.02 in 10.0 mi Calm Calm - N/A   Overcast
10:53 PM 28.9 °F - 28.0 °F 96% 30.06 in 10.0 mi Calm Calm - N/A   Scattered Clouds
11:17 PM 28.4 °F - 28.4 °F 100% 30.07 in 10.0 mi Calm Calm - N/A   Overcast
11:37 PM 26.6 °F - 26.6 °F 100% 30.07 in 10.0 mi Calm Calm - N/A   Scattered Clouds
11:53 PM 27.0 °F 23.0 °F 26.1 °F 96% 30.08 in 3.0 mi East 3.5 mph - N/A   Partly Cloudy